Location: Paderno d�Adda
(45.6667°N, 9.4333°E)
Time: 05:27:55
(UTC+00:00)

CENTAUR R/B - Pass Details

Date: 26 January 2021
Orbit: 742 x 1446 km, 63.5° (Epoch: 02 March)

Event Time Altitude Azimuth Distance (km) Brightness Sun altitude
Rises 04:16:35 0° 183° (S) 3,334 5.3 -26.8°
Reaches altitude 10° 04:19:06 10° 173° (S) 2,480 4.7 -26.3°
Maximum altitude 04:24:08 32° 112° (ESE) 1,560 4.1 -25.5°
Drops below altitude 10° 04:29:56 10° 52° (NE) 2,890 5.6 -24.4°
Sets 04:33:05 0° 44° (NE) 3,973 6.3 -23.9°
